Location: DaltonSkyGazer Observatory
(42.4858°N, 73.1565°W)
Time: 06:09:52
(UTC-04:00)

Helios 1B - Visible Passes

Search period start: 30 August 2014 00:00
Search period end: 09 September 2014 00:00
Orbit: 627 x 629 km, 98.2° (Epoch: 29 August)

Date Brightness Start Highest point End Pass type
(mag) Time Alt. Az. Time Alt. Az. Time Alt. Az.
30 Aug 6.6 22:36:33 21° NNE 22:36:33 21° NNE 22:38:19 10° N visible
31 Aug 7.7 00:13:53 11° NW 00:13:53 11° NW 00:14:03 10° NW visible
31 Aug 6.7 22:56:36 22° N 22:56:36 22° N 22:58:15 10° N visible
01 Sep 7.0 23:16:38 20° NNW 23:16:38 20° NNW 23:18:02 10° NNW visible
02 Sep 7.0 21:59:21 13° NE 21:59:21 13° NE 22:00:07 10° NNE visible
02 Sep 7.3 23:36:41 16° NNW 23:36:41 16° NNW 23:37:40 10° NNW visible
03 Sep 6.9 22:19:23 16° NNE 22:19:23 16° NNE 22:20:33 10° NNE visible
03 Sep 7.6 23:56:43 12° NW 23:56:43 12° NW 23:57:07 10° NNW visible
04 Sep 6.9 22:39:26 18° NNE 22:39:26 18° NNE 22:40:39 10° N visible
05 Sep 7.1 22:59:28 17° N 22:59:28 17° N 23:00:34 10° N visible
06 Sep 7.4 23:19:30 16° NNW 23:19:30 16° NNW 23:20:20 10° NNW visible
07 Sep 7.2 22:02:12 11° NNE 22:02:12 11° NNE 22:02:30 10° NNE visible
07 Sep 7.6 23:39:32 12° NNW 23:39:32 12° NNW 23:39:57 10° NNW visible
08 Sep 7.2 22:22:14 13° NNE 22:22:14 13° NNE 22:22:52 10° NNE visible
